Location: Most
(50.5133°N, 13.6207°E)
Time: 13:20:43
(UTC+01:00)

UNHA 3 R/B - Pass Details

Date: 21 September 2020
Orbit: 479 x 556 km, 97.4° (Epoch: 27 October)

Event Time Altitude Azimuth Distance (km) Brightness Sun altitude
Rises 05:34:16 0° 11° (NNE) 2,605 9.2 -12.8°
Reaches altitude 10° 05:36:21 10° 10° (N) 1,728 8.2 -12.5°
Maximum altitude 05:40:04 76° 285° (WNW) 535 5.1 -11.9°
Drops below altitude 10° 05:43:50 10° 200° (SSW) 1,758 7.6 -11.3°
Enters shadow 05:45:55 - 199° (SSW) 2,634 8.5 -11.0°
